TimeCST,TemperatureF,Dew PointF,Humidity,Sea Level PressureIn,VisibilityMPH,Wind Direction,Wind SpeedMPH,Gust SpeedMPH,PrecipitationIn,Events,Conditions,WindDirDegrees,DateUTC
12:53 AM,46.0,30.9,56,29.94,10.0,SE,8.1,-,N/A,,Clear,140,2013-11-03 05:53:00
1:53 AM,45.0,30.9,58,29.90,10.0,South,11.5,17.3,N/A,,Clear,170,2013-11-03 06:53:00
1:53 AM,46.0,30.9,56,29.87,10.0,South,12.7,19.6,N/A,,Clear,170,2013-11-03 07:53:00
2:53 AM,45.0,30.9,58,29.85,10.0,South,10.4,-,N/A,,Clear,170,2013-11-03 08:53:00
3:53 AM,46.0,30.9,56,29.82,10.0,South,13.8,20.7,N/A,,Clear,170,2013-11-03 09:53:00
4:53 AM,45.0,30.9,58,29.79,10.0,South,16.1,24.2,N/A,,Clear,180,2013-11-03 10:53:00
5:53 AM,45.0,30.0,56,29.78,10.0,South,15.0,21.9,N/A,,Clear,180,2013-11-03 11:53:00
6:53 AM,46.0,30.0,54,29.75,10.0,South,11.5,18.4,N/A,,Clear,180,2013-11-03 12:53:00
7:53 AM,46.9,30.9,54,29.75,10.0,South,11.5,-,N/A,,Clear,180,2013-11-03 13:53:00
8:53 AM,52.0,30.9,45,29.72,10.0,South,13.8,28.8,N/A,,Clear,190,2013-11-03 14:53:00
9:53 AM,54.0,30.9,41,29.70,10.0,South,16.1,26.5,N/A,,Clear,190,2013-11-03 15:53:00
10:53 AM,57.0,32.0,39,29.68,10.0,South,16.1,31.1,N/A,,Clear,190,2013-11-03 16:53:00
11:53 AM,62.1,33.1,34,29.65,8.0,South,18.4,24.2,N/A,,Clear,190,2013-11-03 17:53:00
12:53 PM,68.0,32.0,26,29.55,10.0,South,23.0,36.8,0.00,,Clear,190,2013-11-03 18:53:00
1:53 PM,72.0,30.9,22,29.52,9.0,South,32.2,46.0,N/A,,Overcast,190,2013-11-03 19:53:00
2:53 PM,71.1,30.9,23,29.51,9.0,South,24.2,42.6,0.00,,Scattered Clouds,190,2013-11-03 20:53:00
3:53 PM,73.0,30.9,21,29.50,10.0,South,31.1,41.4,N/A,,Clear,190,2013-11-03 21:53:00
4:53 PM,68.0,33.1,27,29.51,10.0,South,24.2,34.5,N/A,,Clear,180,2013-11-03 22:53:00
5:53 PM,64.0,34.0,33,29.53,10.0,South,21.9,32.2,N/A,,Clear,180,2013-11-03 23:53:00
6:53 PM,61.0,33.1,35,29.55,10.0,South,20.7,31.1,N/A,,Clear,180,2013-11-04 00:53:00
7:53 PM,60.1,34.0,38,29.57,10.0,South,21.9,32.2,N/A,,Clear,190,2013-11-04 01:53:00
8:53 PM,57.9,34.0,41,29.59,10.0,SSW,15.0,25.3,N/A,,Clear,200,2013-11-04 02:53:00
9:53 PM,55.9,34.0,44,29.61,10.0,SSW,10.4,19.6,N/A,,Clear,200,2013-11-04 03:53:00
10:53 PM,55.0,33.1,43,29.62,10.0,SW,8.1,16.1,N/A,,Clear,220,2013-11-04 04:53:00